Date String (YYYY-MM-DD hh:mm:ss) UTC,Instrument flags,Ambient pressure (hPa),Sample flow (lpm),Bypass flow (lpm),Sample temperature (°C),Ambient temperature (°C),ASC tube jacket temperature (°C),LED temperature (°C),Box temperature (°C),Sample RH (%),Span deviation,Mass concentration (μg/m³),Mass concentration (μg/m³),Mass concentration (μg/m³)
DateTimeUTC,F1_M11,P_M11,Q1_M11,Q2_M11,T1_M11,T2_M11,T3_M11,T4_M11,T5_M11,U1_M11,ZSPAN_M11,X0_M11,X2_M11,X1_M11
2021-10-27 23:00:00,,0823.3,5.00,0.00,28.0,27.0,00.0,37.0,29.7,08.7,0000.0,0005.12,0001.17,0000.75
2021-10-27 23:01:00,,0823.4,5.00,0.00,28.0,27.0,00.0,37.0,29.8,08.7,0000.0,0005.35,0001.18,0000.75
2021-10-27 23:02:00,,0823.3,5.00,0.00,28.0,27.0,00.0,37.0,29.7,08.7,0000.0,0004.10,0001.13,0000.74
2021-10-27 23:03:00,,0823.4,4.99,0.00,28.0,27.0,00.0,37.0,29.7,08.6,0000.0,0003.25,0001.02,0000.73
2021-10-27 23:04:00,,0823.4,4.99,0.00,28.0,27.0,00.0,37.0,29.6,08.6,0000.0,0004.35,0001.01,0000.72
2021-10-27 23:05:00,,0823.4,5.00,0.00,28.0,27.0,00.0,37.0,29.7,08.6,0000.0,0004.49,0001.00,0000.72
2021-10-27 23:06:00,,0823.4,4.99,0.00,27.9,27.0,00.0,37.0,29.6,08.7,0000.0,0004.78,0001.00,0000.71
2021-10-27 23:07:00,,0823.5,5.01,0.00,28.0,27.1,00.0,37.0,29.7,08.7,0000.0,0005.01,0001.00,0000.72
2021-10-27 23:08:00,,0823.5,5.01,0.00,28.0,27.1,00.0,37.0,29.7,08.7,0000.0,0005.51,0001.01,0000.72
2021-10-27 23:09:00,,0823.5,4.99,0.00,27.9,27.1,00.0,37.0,29.7,08.7,0000.0,0005.56,0001.02,0000.73
2021-10-27 23:10:00,,0823.7,4.99,0.00,28.0,27.1,00.0,37.0,29.7,08.7,0000.0,0005.55,0001.04,0000.75
2021-10-27 23:11:00,,0823.7,4.99,0.00,28.0,27.1,00.0,37.0,29.7,08.7,0000.0,0004.22,0001.01,0000.74
2021-10-27 23:12:00,,0823.7,5.01,0.00,28.0,27.0,00.0,37.0,29.7,08.7,0000.0,0004.07,0001.01,0000.74
2021-10-27 23:13:00,,0823.7,5.01,0.00,28.0,27.0,00.0,37.0,29.7,08.6,0000.0,0004.10,0001.03,0000.74
2021-10-27 23:14:00,,0823.6,4.99,0.00,28.0,26.9,00.0,37.0,29.7,08.6,0000.0,0004.12,0001.02,0000.74
2021-10-27 23:15:00,,0823.6,5.01,0.00,28.0,27.0,00.0,37.0,29.7,08.6,0000.0,0003.45,0001.05,0000.74
2021-10-27 23:16:00,,0823.6,5.00,0.00,28.0,27.0,00.0,37.0,29.8,08.6,0000.0,0003.86,0001.05,0000.73
2021-10-27 23:17:00,,0823.6,4.98,0.00,28.0,27.0,00.0,37.0,29.8,08.6,0000.0,0003.87,0001.09,0000.74
2021-10-27 23:18:00,,0823.6,5.00,0.00,28.0,27.0,00.0,37.0,29.7,08.6,0000.0,0003.69,0001.12,0000.74
2021-10-27 23:19:00,,0823.6,5.01,0.00,28.0,27.0,00.0,37.0,29.7,08.6,0000.0,0003.36,0001.16,0000.74
2021-10-27 23:20:00,,0823.6,5.00,0.00,28.0,26.9,00.0,37.0,29.7,08.6,0000.0,0003.33,0001.16,0000.74
2021-10-27 23:21:00,,0823.6,5.00,0.00,28.0,26.9,00.0,37.0,29.7,08.6,0000.0,0003.40,0001.15,0000.73
2021-10-27 23:22:00,,0823.6,5.00,0.00,28.0,26.9,00.0,37.0,29.7,08.7,0000.0,0003.42,0001.15,0000.73
2021-10-27 23:23:00,,0823.6,5.00,0.00,28.0,27.0,00.0,37.0,29.7,08.6,0000.0,0003.45,0001.16,0000.72
2021-10-27 23:24:00,,0823.6,5.00,0.00,28.0,27.0,00.0,37.0,29.7,08.6,0000.0,0003.41,0001.16,0000.72
2021-10-27 23:25:00,,0823.6,4.99,0.00,28.0,27.0,00.0,37.0,29.7,08.6,0000.0,0003.34,0001.14,0000.72
2021-10-27 23:26:00,,0823.7,5.00,0.00,28.0,26.9,00.0,37.0,29.6,08.7,0000.0,0002.78,0001.09,0000.71
2021-10-27 23:27:00,,0823.7,5.00,0.00,28.0,26.9,00.0,37.0,29.6,08.6,0000.0,0002.29,0001.07,0000.71
2021-10-27 23:28:00,,0823.7,4.98,0.00,28.0,26.9,00.0,37.0,29.7,08.6,0000.0,0001.87,0001.01,0000.70
2021-10-27 23:29:00,,0823.7,5.02,0.00,28.0,26.9,00.0,37.0,29.7,08.6,0000.0,0001.77,0000.96,0000.69
2021-10-27 23:30:00,,0823.7,5.00,0.00,28.0,26.9,00.0,37.0,29.7,08.6,0000.0,0001.62,0000.91,0000.68
2021-10-27 23:31:00,,0823.8,5.01,0.00,28.0,26.9,00.0,37.0,29.7,08.6,0000.0,0001.53,0000.87,0000.68
2021-10-27 23:32:00,,0823.7,5.01,0.00,28.0,26.9,00.0,37.0,29.7,08.6,0000.0,0001.33,0000.87,0000.67
2021-10-27 23:33:00,,0823.8,5.00,0.00,28.0,27.0,00.0,37.0,29.8,08.6,0000.0,0001.35,0000.87,0000.67
2021-10-27 23:34:00,,0823.7,5.00,0.00,28.0,27.0,00.0,37.0,29.8,08.6,0000.0,0001.38,0000.87,0000.67
2021-10-27 23:35:00,,0823.7,5.00,0.00,28.0,27.1,00.0,37.0,29.8,08.6,0000.0,0001.36,0000.84,0000.66
2021-10-27 23:36:00,,0823.7,4.99,0.00,28.1,27.1,00.0,37.1,29.8,08.6,0000.0,0001.36,0000.84,0000.65
2021-10-27 23:37:00,,0823.7,5.01,0.00,28.1,27.1,00.0,37.1,29.8,08.6,0000.0,0001.37,0000.84,0000.65
2021-10-27 23:38:00,,0823.7,5.01,0.00,28.1,27.1,00.0,37.1,29.7,08.6,0000.0,0001.38,0000.84,0000.65
2021-10-27 23:39:00,,0823.7,4.99,0.00,28.1,27.1,00.0,37.1,29.8,08.6,0000.0,0001.37,0000.84,0000.65
2021-10-27 23:40:00,,0823.7,5.00,0.00,28.1,27.1,00.0,37.1,29.7,08.6,0000.0,0001.40,0000.85,0000.66
2021-10-27 23:41:00,,0823.7,4.99,0.00,28.0,27.1,00.0,37.1,29.7,08.6,0000.0,0001.39,0000.85,0000.66
2021-10-27 23:42:00,,0823.8,5.02,0.00,28.0,27.0,00.0,37.1,29.7,08.6,0000.0,0001.36,0000.84,0000.65
2021-10-27 23:43:00,,0823.9,4.99,0.00,28.0,27.0,00.0,37.1,29.7,08.6,0000.0,0001.35,0000.83,0000.66
2021-10-27 23:44:00,,0823.9,5.00,0.00,28.0,26.9,00.0,37.1,29.7,08.6,0000.0,0001.32,0000.83,0000.67
2021-10-27 23:45:00,,0823.9,5.00,0.00,28.0,26.9,00.0,37.1,29.7,08.7,0000.0,0001.29,0000.83,0000.67
2021-10-27 23:46:00,,0823.8,5.01,0.00,28.0,26.9,00.0,37.1,29.7,08.7,0000.0,0001.24,0000.82,0000.67
2021-10-27 23:47:00,,0823.8,4.99,0.00,28.0,26.9,00.0,37.1,29.6,08.7,0000.0,0001.23,0000.82,0000.67
2021-10-27 23:48:00,,0823.8,4.99,0.00,28.0,26.9,00.0,37.1,29.7,08.7,0000.0,0001.36,0000.81,0000.67
2021-10-27 23:49:00,,0823.9,5.00,0.00,28.0,26.9,00.0,37.1,29.7,08.7,0000.0,0002.65,0000.82,0000.67
2021-10-27 23:50:00,,0824.0,5.02,0.00,28.0,26.9,00.0,37.1,29.7,08.7,0000.0,0002.86,0000.84,0000.67
2021-10-27 23:51:00,,0824.0,5.01,0.00,28.0,26.9,00.0,37.1,29.7,08.7,0000.0,0002.93,0000.84,0000.67
2021-10-27 23:52:00,,0824.1,5.00,0.00,28.0,26.9,00.0,37.1,29.8,08.7,0000.0,0002.94,0000.84,0000.67
2021-10-27 23:53:00,,0824.1,4.99,0.00,28.1,27.0,00.0,37.1,29.8,08.7,0000.0,0003.03,0000.84,0000.68
2021-10-27 23:54:00,,0824.1,4.99,0.00,28.1,27.1,00.0,37.1,29.8,08.7,0000.0,0003.03,0000.83,0000.67
2021-10-27 23:55:00,,0824.1,5.01,0.00,28.1,27.1,00.0,37.1,29.9,08.7,0000.0,0003.02,0000.82,0000.67
2021-10-27 23:56:00,,0824.1,5.01,0.00,28.1,27.1,00.0,37.1,29.9,08.7,0000.0,0003.45,0000.82,0000.66
2021-10-27 23:57:00,,0824.1,5.00,0.00,28.1,27.2,00.0,37.1,29.9,08.7,0000.0,0003.60,0000.84,0000.67
2021-10-27 23:58:00,,0824.1,5.00,0.00,28.1,27.2,00.0,37.1,29.9,08.7,0000.0,0003.67,0000.85,0000.66
2021-10-27 23:59:00,,0824.1,5.01,0.00,28.1,27.2,00.0,37.1,29.9,08.8,0000.0,0003.95,0000.88,0000.67
